TA2EE-10 Weather Reports


time (UTC)temp
F
wind
direction
speed
knots
gust
knots
rain 1hr
in
rain 24hr
in
rain mn
in
humidity
%
barometer
mb
20260507104042 81 0 0.0 0.0 0.00 0.00 0.00 25 917.0
20260507103631 81 0 0.0 0.0 0.00 0.00 0.00 25 917.0
20260507100107 83 0 0.0 0.0 0.00 0.00 0.00 24 918.0
20260507092545 84 0 0.0 0.0 0.00 0.00 0.00 24 918.0
20260507085022 84 0 0.0 0.0 0.00 0.00 0.00 23 918.0
20260507081909 85 0 0.0 0.0 0.00 0.00 0.00 23 918.0
20260507081500 85 0 0.0 0.0 0.00 0.00 0.00 23 918.0
20260507073937 86 0 0.0 0.0 0.00 0.00 0.00 22 918.0
20260507070413 85 0 0.0 0.0 0.00 0.00 0.00 23 918.0
20260507062846 83 0 0.0 0.0 0.00 0.00 0.00 25 918.0
20260507062739 83 0 0.0 0.0 0.00 0.00 0.00 25 918.0
20260507055216 79 0 0.0 0.0 0.00 0.00 0.00 27 918.0
20260507051652 73 0 0.0 0.0 0.00 0.00 0.00 30 918.0
20260507044130 69 0 0.0 0.0 0.00 0.00 0.00 34 918.0
20260507040608 68 0 0.0 0.0 0.00 0.00 0.00 34 918.0
20260507033046 68 0 0.0 0.0 0.00 0.00 0.00 34 917.0
20260507025523 70 0 0.0 0.0 0.00 0.00 0.00 33 917.0
20260507022001 71 0 0.0 0.0 0.00 0.00 0.00 32 917.0
20260507014438 71 0 0.0 0.0 0.00 0.00 0.00 33 917.0
20260507010915 72 0 0.0 0.0 0.00 0.00 0.00 32 917.0
20260507003352 73 0 0.0 0.0 0.00 0.00 0.00 32 917.0
20260506235830 75 0 0.0 0.0 0.00 0.00 0.00 31 917.0
20260506232308 75 0 0.0 0.0 0.00 0.00 0.00 30 916.0
20260506224746 76 0 0.0 0.0 0.00 0.00 0.00 30 916.0
20260506221224 75 0 0.0 0.0 0.00 0.00 0.00 31 916.0
20260506213701 76 0 0.0 0.0 0.00 0.00 0.00 31 916.0
20260506210140 77 0 0.0 0.0 0.00 0.00 0.00 32 916.0
20260506202617 78 0 0.0 0.0 0.00 0.00 0.00 34 916.0
20260506195055 78 0 0.0 0.0 0.00 0.00 0.00 32 916.0
20260506191533 78 0 0.0 0.0 0.00 0.00 0.00 28 916.0
20260506184011 78 0 0.0 0.0 0.00 0.00 0.00 29 916.0
20260506180449 79 0 0.0 0.0 0.00 0.00 0.00 29 915.0
20260506180342 79 0 0.0 0.0 0.00 0.00 0.00 28 915.0
20260506172819 80 0 0.0 0.0 0.00 0.00 0.00 27 915.0
20260506165257 81 0 0.0 0.0 0.00 0.00 0.00 26 915.0
20260506161736 79 0 0.0 0.0 0.00 0.00 0.00 26 915.0
20260506154213 78 0 0.0 0.0 0.00 0.00 0.00 26 914.0
20260506150652 80 0 0.0 0.0 0.00 0.00 0.00 26 914.0
20260506143129 81 0 0.0 0.0 0.00 0.00 0.00 26 914.0
20260506135607 79 0 0.0 0.0 0.00 0.00 0.00 27 914.0
20260506132045 80 0 0.0 0.0 0.00 0.00 0.00 28 914.0
20260506124523 82 0 0.0 0.0 0.00 0.00 0.00 25 915.0
20260506121001 80 0 0.0 0.0 0.00 0.00 0.00 27 915.0
20260506113439 78 0 0.0 0.0 0.00 0.00 0.00 28 915.0
20260506105917 78 0 0.0 0.0 0.00 0.00 0.00 28 915.0